Location: Edinburgh
(55.9500°N, 3.1600°W)
Time: 23:25:57
(UTC+01:00)

Vanguard 2 Rocket - Visible Passes

Search period start: 17 October 2017 00:00
Search period end: 27 October 2017 00:00
Orbit: 555 x 3327 km, 32.9° (Epoch: 16 October)

Date Brightness Start Highest point End Pass type
(mag) Time Alt. Az. Time Alt. Az. Time Alt. Az.
17 Oct 11.0 19:52:12 10° SW 19:58:29 14° SSW 20:05:47 10° S visible
18 Oct 10.8 18:51:46 10° SW 18:58:35 16° SSW 19:07:01 10° S visible
20 Oct 11.0 19:09:53 10° SW 19:12:16 11° SSW 19:14:49 10° SSW visible
